Location: Cabeza de los Veneras
(40.2000°N, 5.2000°W)
Time: 03:31:29
(UTC+00:00)

Cosmos 371 Rocket - Pass Details

Date: 18 April 2024
Orbit: 680 x 694 km, 74.0° (Epoch: 25 May)

Event Time Altitude Azimuth Distance (km) Brightness Sun altitude
Rises 20:12:30 0° 349° (NNW) 3,047 7.2 -13.2°
Reaches altitude 10° 20:14:59 10° 358° (N) 2,128 6.2 -13.6°
Maximum altitude 20:19:24 36° 65° (ENE) 1,072 4.0 -14.3°
Enters shadow 20:21:37 24° 114° (ESE) 1,416 4.3 -14.7°
